SCP
1 1 1 1 1 0 0 0 1 1 1 1 1 0 0 0 0 0 0 1 1 1 1 1 1 1 0 0 0 0 0 0 1 1 1 1 0 0 0 1 0 0 0 0 0 0 1 1 1
1 1 1 1 0 0 0 0 1 1 1 1 1 0 0 0 0 0 0 1 1 1 1 1 1 1 0 0 0 0 0 0 1 1 0 0 0 0 0 0 0 0 0 0 0 0 0 1 1
1 1 1 1 0 0 0 0 1 1 1 1 0 0 0 1 1 0 1 1 1 1 1 1 1 1 0 0 0 0 0 0 0 0 0 0 0 1 1 0 0 0 0 0 0 0 0 0 1
1 1 1 0 0 0 0 0 1 1 1 1 0 0 1 1 1 1 1 1 1 1 0 1 1 1 0 0 0 0 0 0 0 0 0 0 0 1 1 1 1 1 1 1 0 0 0 0 0
1 1 0 0 0 0 0 1 1 1 1 1 1 0 1 1 1 1 1 1 1 1 1 1 1 1 1 1 1 0 0 0 0 0 0 1 1 1 1 1 1 1 1 1 1 0 0 0 0
1 0 0 0 0 0 0 1 1 1 1 1 1 1 1 1 1 1 1 1 1 1 1 1 1 1 1 1 1 1 1 1 0 0 1 1 1 1 1 1 1 2 1 1 1 1 0 0 0
1 1 0 0 0 0 1 1 1 1 1 1 1 1 1 1 1 1 1 1 1 1 1 1 1 1 1 1 1 1 1 1 1 1 1 1 1 1 1 1 1 1 1 1 1 1 0 0 0
1 1 0 0 0 0 1 1 1 1 1 1 1 1 1 1 1 1 1 1 1 1 1 1 1 1 1 1 1 2 1 1 1 1 1 1 1 1 1 1 1 1 1 1 1 1 1 1 1
0 0 0 0 0 0 1 1 1 1 1 1 1 1 1 1 1 1 1 1 1 1 1 1 1 1 1 1 1 2 2 2 1 1 1 1 1 1 1 1 1 1 1 1 1 1 1 1 1
0 0 0 0 0 0 1 1 1 1 1 1 1 1 1 1 1 2 2 1 1 1 1 1 1 1 1 1 1 2 2 2 1 1 1 0 0 0 0 1 1 1 1 1 1 1 1 1 1
0 0 0 0 0 0 0 1 1 1 1 1 1 1 1 2 2 2 2 2 2 1 1 1 1 1 1 1 1 2 2 2 1 1 1 0 0 0 0 0 1 1 1 1 1 1 1 0 0
0 0 0 0 0 0 0 1 1 1 1 1 1 2 2 2 2 2 2 2 2 2 2 2 2 2 2 2 2 2 2 2 1 1 1 0 0 0 0 0 0 0 0 0 0 0 0 0 0
0 0 0 0 1 1 1 1 1 1 1 1 1 2 2 2 2 2 2 3 2 2 2 2 2 2 2 2 2 2 2 2 1 1 1 0 0 0 0 0 0 0 0 0 0 0 0 0 0
0 0 0 0 1 1 1 1 1 1 1 1 1 1 2 2 2 3 3 3 3 2 2 2 2 2 2 2 2 2 2 2 1 1 1 0 0 0 0 0 0 0 0 0 0 0 0 0 0
0 0 0 0 0 1 1 1 1 1 2 1 1 1 1 2 3 3 4 3 3 2 2 2 2 2 2 2 2 2 2 1 1 1 1 1 1 0 1 1 0 0 0 0 0 0 0 0 0
0 0 0 0 0 0 1 1 1 1 1 1 1 1 1 2 3 4 3 3 2 2 2 2 2 2 2 2 2 2 1 1 1 1 1 1 1 1 1 1 0 0 0 0 0 0 0 0 0
0 0 0 0 0 1 1 1 1 1 1 1 1 1 2 3 3 3 3 2 2 2 2 2 2 2 2 2 1 1 2 2 1 1 1 1 1 1 1 1 1 0 0 0 0 0 0 0 0
0 0 0 0 0 1 1 1 1 1 1 1 1 2 3 3 3 3 2 2 2 2 2 2 2 2 1 1 1 1 2 2 1 1 1 1 1 1 1 1 1 0 0 0 0 0 0 0 0
0 0 0 0 0 1 1 1 1 1 2 2 2 3 3 4 3 3 2 2 2 2 2 2 2 2 2 1 2 2 2 2 2 2 1 1 1 1 2 2 1 1 0 0 0 0 0 0 0
0 0 0 0 0 1 1 1 2 2 3 3 3 3 3 3 3 3 2 2 2 2 3 3 2 2 2 2 2 2 2 2 2 2 1 1 1 1 2 2 2 1 1 0 0 0 0 1 1
0 0 0 0 0 1 1 1 2 3 3 3 3 3 3 3 3 2 2 3 3 3 3 3 3 3 3 3 3 3 3 3 2 2 1 1 1 1 1 2 1 1 1 0 0 1 1 1 1
0 0 0 0 0 1 1 1 2 2 3 3 4 4 3 2 2 2 2 3 3 4 4 4 3 3 4 4 4 5 4 3 2 2 2 1 1 1 1 1 1 1 1 1 1 1 1 2 2
0 0 0 0 0 0 0 1 1 2 3 3 4 4 3 2 2 2 3 4 4 5 5 5 4 4 5 5 5 5 4 3 3 2 2 1 1 1 1 1 1 1 1 1 2 2 3 3 3
0 0 0 0 0 0 0 0 1 1 2 3 3 4 4 3 3 3 3 4 6 7 7 7 6 5 6 6 6 5 4 3 3 3 2 1 1 1 1 1 1 1 1 2 3 4 4 4 5
0 0 0 0 0 0 0 0 0 1 2 2 3 4 4 4 3 3 3 4 7 9 10 9 8 6 6 6 6 4 3 3 3 3 2 2 1 1 1 1 1 1 2 3 4 5 6 6 6
0 0 0 0 0 0 0 0 1 1 2 2 3 4 4 4 3 3 3 4 6 9 12 12 10 7 6 6 5 4 3 3 3 2 2 1 1 1 1 1 1 2 2 3 4 6 7 7 7
0 0 0 0 0 0 0 0 1 1 2 2 2 3 4 4 3 3 3 3 4 7 11 13 12 9 7 6 5 4 3 3 2 2 2 1 1 1 1 2 2 3 3 4 6 7 8 7 7
0 0 0 0 0 0 0 0 1 2 2 2 2 3 4 4 3 3 3 3 3 6 11 14 13 11 8 7 5 4 3 3 2 2 1 1 1 2 2 3 3 4 5 6 7 8 7 7 6
0 0 0 0 0 0 0 0 1 2 2 2 3 3 4 4 4 3 4 4 4 8 14 16 15 12 10 8 6 5 4 3 2 2 2 1 2 2 2 3 4 4 5 6 7 7 6 5 5
0 0 0 0 0 0 0 1 1 2 3 3 4 5 5 4 4 4 4 4 5 10 16 18 15 12 10 9 7 5 4 3 2 2 2 2 2 2 2 3 4 5 5 6 7 7 5 4 4
Wind_Speed
7 5 3 1 4 6 8 7 8 9 8 10 12 11 11 9 7 8 3 7 9 6 5 9 12 13 13 14 13 14 15 16 16 16 16 16 16 16 16 16 17 17 17 16 15 15 15 15 15
4 4 1 3 6 7 7 8 13 13 12 11 13 14 12 10 9 9 5 7 9 7 5 8 13 13 13 13 13 14 15 16 16 16 16 16 16 16 16 16 16 16 16 16 15 15 14 14 13
4 3 3 4 4 6 7 10 14 14 11 9 8 8 7 7 8 6 7 10 8 7 5 8 13 13 14 14 13 14 15 15 16 16 16 15 15 15 15 15 16 16 15 15 14 13 13 12 12
2 2 4 6 8 7 10 12 15 14 12 10 9 9 6 6 6 9 12 12 10 7 5 8 13 13 13 13 13 13 15 15 15 15 15 15 15 15 15 15 15 15 14 14 13 12 12 11 10
3 5 6 6 8 7 11 14 13 13 8 12 13 11 7 7 13 14 12 12 10 7 5 7 13 13 13 13 13 13 14 14 14 14 14 14 14 14 14 14 14 13 13 12 12 11 10 9 8
3 4 6 5 8 7 9 14 16 17 16 14 13 11 5 7 12 12 11 10 10 8 6 6 12 13 13 13 13 13 13 14 14 14 13 13 13 13 13 13 13 12 11 11 10 9 9 8 7
4 4 5 7 8 8 9 11 14 15 14 10 10 8 5 6 9 12 11 10 9 8 6 5 5 8 11 12 12 12 12 12 13 13 13 13 12 12 11 11 11 11 10 9 8 8 7 6 5
5 6 5 5 9 8 9 9 12 14 11 13 9 8 7 8 10 11 10 9 8 6 5 5 4 4 4 6 10 11 11 11 11 11 11 12 11 10 10 9 9 9 8 7 6 6 5 4 4
5 6 5 7 8 8 11 14 9 9 12 7 7 9 12 13 13 11 9 7 6 6 4 4 4 4 4 4 7 7 9 9 8 8 10 8 4 4 5 7 7 7 6 5 4 3 3 2 2
5 6 8 7 9 11 13 15 10 9 12 12 13 13 13 12 12 11 10 8 7 7 5 5 5 4 4 4 4 2 3 3 3 2 3 3 2 2 4 5 6 6 5 4 3 2 2 1 1
5 7 7 7 11 13 12 10 7 12 10 14 18 17 14 12 10 10 9 9 8 8 7 6 5 5 4 3 3 1 1 1 2 2 3 2 2 1 2 1 2 2 2 1 1 1 1 1 1
6 6 8 9 11 12 11 10 8 8 11 15 17 17 14 12 10 9 9 8 7 7 7 7 6 5 5 4 3 2 2 1 2 2 3 3 2 2 2 1 1 1 1 1 1 1 1 1 2
7 6 9 11 12 13 13 11 11 10 14 15 16 15 13 12 10 8 9 8 8 7 7 7 6 6 5 4 3 3 3 2 2 2 3 4 3 3 2 2 2 1 1 1 1 1 1 1 1
5 8 10 11 11 12 16 10 9 12 15 15 14 13 13 12 11 9 8 8 8 7 7 6 6 6 5 4 2 2 2 2 2 2 3 4 4 3 3 2 1 1 1 1 1 1 1 0 0
5 9 7 6 7 8 14 7 8 14 14 14 13 13 12 11 11 11 10 10 9 8 7 7 6 5 5 4 3 3 2 2 2 2 3 4 4 4 3 2 1 1 1 1 1 1 1 1 1
4 5 4 2 5 6 10 7 8 13 14 12 12 12 10 10 11 11 10 8 8 8 7 7 7 6 5 4 2 2 2 2 2 2 2 3 4 4 3 2 1 1 1 1 1 1 1 0 0
4 2 3 3 5 6 6 7 9 11 13 12 12 12 11 10 9 9 10 10 9 9 8 6 6 6 4 4 2 2 2 2 2 2 2 3 4 4 3 2 1 1 1 0 1 1 1 1 0
3 2 3 4 5 6 6 7 11 11 12 12 11 11 12 13 11 11 10 10 9 9 8 7 6 5 4 3 2 1 1 1 1 1 1 2 2 3 3 2 1 1 1 0 1 1 1 1 1
4 2 3 5 6 6 7 9 12 12 10 10 10 11 12 12 10 10 10 10 9 8 8 7 6 5 4 2 2 2 1 1 1 1 2 3 2 2 2 1 1 1 1 1 1 1 1 0 1
3 2 3 2 4 6 6 6 9 11 13 13 13 12 12 10 8 9 9 9 10 9 9 8 8 7 5 3 3 2 2 1 1 1 1 2 2 2 2 2 2 1 1 0 0 1 1 0 1
4 5 5 4 2 4 6 2 3 5 5 7 8 10 11 13 13 11 11 10 10 10 10 9 8 7 6 5 3 2 1 1 1 0 1 1 1 2 1 2 2 1 1 1 1 1 2 1 1
5 5 5 5 5 2 5 3 5 5 5 7 8 9 9 10 11 11 11 10 11 11 9 8 8 7 6 5 4 4 3 2 2 1 1 1 1 1 1 2 2 1 1 0 1 1 1 2 1
6 4 3 4 5 2 1 4 5 3 7 9 10 11 11 11 12 12 12 12 11 10 9 8 7 6 5 5 5 4 3 2 1 1 1 0 0 0 0 1 1 1 0 0 0 0 1 1 2
3 3 6 7 6 1 4 4 5 7 13 11 11 11 11 11 10 11 10 8 8 8 7 7 7 6 5 5 5 5 4 3 2 1 1 1 0 0 0 1 1 1 1 1 1 1 1 1 1
4 6 5 5 4 5 4 3 8 11 12 13 13 12 12 11 10 10 10 10 9 9 8 8 7 6 6 6 5 4 4 4 4 3 2 2 1 1 1 1 1 1 1 1 1 1 1 1 1
3 10 9 5 4 4 2 4 7 7 8 10 10 10 10 11 10 10 11 11 11 11 9 9 8 7 6 6 5 4 4 3 2 2 2 2 2 2 1 1 1 1 1 1 1 0 1 1 1
4 4 9 8 3 1 3 4 6 0 5 7 8 8 9 11 11 10 10 10 10 10 10 10 9 7 6 6 5 4 3 3 3 2 2 1 1 1 1 1 1 1 1 1 1 0 0 1 1
7 7 6 6 5 2 3 3 5 5 7 7 8 8 8 8 9 9 9 9 9 9 9 8 8 8 7 6 5 4 3 3 3 2 2 1 1 1 1 1 1 1 0 0 1 1 1 2 2
2 3 6 5 6 7 3 7 7 10 10 10 9 9 9 9 8 8 8 8 8 8 8 8 8 7 6 6 5 4 3 3 3 2 1 1 1 1 1 1 1 2 2 2 3 3 3 4 3
6 7 8 6 3 5 5 8 5 8 8 9 9 8 8 9 9 8 7 7 7 8 8 8 8 7 7 6 6 5 4 3 3 2 1 2 2 2 2 3 3 3 4 4 4 4 5 5 5
Wind_Direction
174 169 160 119 54 61 77 82 92 80 63 58 67 74 73 61 82 106 122 113 112 103 90 92 91 91 90 90 92 94 97 100 101 102 104 105 105 104 106 108 110 111 112 114 114 114 114 114 116
166 168 137 55 76 82 78 93 89 90 112 101 77 75 71 67 81 106 112 117 113 106 96 99 96 94 93 94 95 98 101 104 104 105 106 107 106 107 108 109 112 113 114 115 114 113 113 113 114
179 180 85 60 84 110 108 103 104 100 97 86 81 60 59 85 98 114 131 124 108 100 97 105 100 97 95 95 97 102 106 107 108 108 108 110 110 110 110 112 115 115 115 115 115 114 113 112 113
141 71 54 75 87 106 118 120 115 103 78 72 85 68 58 83 99 123 128 119 109 102 100 107 104 101 100 98 99 103 108 109 109 110 110 111 111 111 111 113 114 115 115 115 116 116 114 111 110
72 75 64 76 90 97 112 118 112 99 86 85 89 94 81 81 110 121 124 118 114 105 98 107 106 104 102 100 100 104 111 113 113 113 113 113 112 113 113 114 115 116 115 116 118 119 115 113 111
66 72 81 90 99 99 109 114 106 102 109 104 100 100 93 113 120 127 125 121 119 116 107 108 111 108 104 102 102 107 113 116 117 117 117 117 116 116 116 117 119 120 120 121 121 119 118 119 117
114 101 116 122 114 112 120 121 116 122 122 119 119 101 114 128 131 132 126 124 122 120 113 100 105 106 109 108 106 109 115 119 121 121 122 122 121 121 120 121 124 125 126 127 128 125 123 125 131
142 106 106 116 118 123 131 116 125 128 120 129 125 119 143 153 135 128 126 124 125 124 122 118 107 98 100 105 113 114 118 122 125 126 127 128 128 126 126 125 128 129 133 136 135 132 130 131 142
116 96 132 151 137 137 128 111 108 105 117 121 102 122 143 142 132 127 125 121 130 132 139 137 130 126 120 120 124 122 123 124 124 126 131 127 115 118 128 135 139 141 142 146 149 149 147 149 168
110 128 172 172 147 137 129 124 124 111 108 105 108 119 133 137 136 135 141 145 148 152 159 154 151 155 151 138 118 112 120 120 116 115 124 117 125 140 137 142 145 150 153 164 184 206 214 217 222
123 141 153 136 135 130 127 124 113 123 127 141 140 144 146 143 142 144 151 155 159 162 163 164 166 166 160 135 140 139 120 132 141 157 155 138 126 127 120 129 138 143 164 182 251 279 282 263 247
108 128 132 130 131 129 130 124 117 130 148 150 146 148 149 151 153 155 157 156 154 154 160 162 165 161 160 150 153 156 150 155 164 168 164 150 140 146 153 179 196 191 185 198 244 261 271 267 255
101 111 113 124 127 124 118 121 121 128 135 142 145 148 156 159 160 160 156 153 151 149 152 153 151 150 149 147 164 161 167 172 173 161 163 160 153 161 166 183 195 201 187 183 197 236 253 299 312
119 108 115 121 120 125 121 121 113 139 143 146 153 158 164 162 160 156 154 152 155 155 151 145 142 145 141 140 146 144 156 165 164 161 165 161 155 154 154 151 156 177 185 190 176 182 186 86 95
104 97 93 118 116 129 115 103 135 151 150 154 161 165 166 162 161 165 167 162 162 158 152 150 146 141 139 140 145 136 143 142 152 161 158 153 151 148 148 152 164 179 169 151 135 102 85 84 68
60 84 106 196 135 151 117 144 164 155 156 162 166 165 167 167 170 170 165 161 161 156 156 162 154 145 145 143 143 140 135 134 153 155 152 158 156 151 145 158 186 186 148 135 133 127 98 62 68
39 115 165 198 184 153 119 154 174 166 164 171 172 169 171 167 168 168 166 163 164 162 161 163 152 154 155 148 149 142 133 139 153 150 152 166 167 163 153 165 195 176 126 145 178 122 147 168 258
229 186 179 192 198 145 132 159 168 174 171 175 176 173 173 172 175 172 170 166 164 161 159 157 153 162 158 144 124 98 98 127 140 152 159 173 178 173 161 164 188 160 114 107 151 151 155 186 200
197 203 217 227 187 145 151 161 172 176 175 177 177 175 177 180 177 169 168 164 161 160 158 160 164 171 160 144 141 134 161 185 166 183 179 192 196 186 179 165 154 129 148 211 192 138 110 329 112
206 222 237 227 162 142 152 168 180 181 185 181 177 178 178 172 170 174 170 166 168 171 169 171 172 173 173 170 160 161 167 183 182 192 198 203 188 186 174 164 163 167 166 339 329 135 143 257 139
249 196 200 192 98 84 110 55 200 207 196 188 181 177 177 177 178 181 178 177 173 175 176 176 177 176 177 169 143 125 88 53 60 154 222 234 200 186 179 170 175 186 174 203 247 198 169 204 250
252 227 192 168 125 196 144 164 247 211 218 201 190 183 183 182 179 180 181 180 182 184 180 175 174 176 175 166 157 159 165 183 209 191 193 218 229 221 191 180 186 182 161 206 257 206 190 171 230
218 213 173 151 128 91 47 129 257 189 213 211 198 192 188 187 184 185 187 187 185 181 177 176 171 175 175 171 171 169 177 192 189 150 158 198 308 331 191 138 154 165 175 214 285 292 202 179 192
176 58 36 50 73 78 231 150 238 208 207 201 199 195 189 189 189 188 187 178 175 173 169 166 165 175 173 171 170 171 179 187 164 160 161 178 226 308 264 173 195 188 184 222 252 260 237 216 207
86 88 40 12 23 251 248 165 232 221 203 189 186 190 187 184 185 185 177 175 172 169 167 165 164 172 173 169 171 173 176 173 175 177 171 171 183 226 244 232 231 227 217 228 239 270 277 246 222
167 135 151 176 202 266 315 217 252 234 189 173 172 176 175 176 182 184 181 178 175 172 168 167 168 172 173 170 172 169 166 163 164 163 163 173 193 211 218 219 232 227 211 214 199 249 279 293 225
151 168 164 138 161 144 281 281 315 25 147 154 158 160 168 174 177 180 177 172 171 171 173 172 167 164 166 164 159 157 157 151 152 153 147 162 191 199 202 214 225 231 208 174 132 103 317 19 24
162 155 100 115 145 207 279 252 222 206 180 168 166 171 175 170 167 166 168 168 168 168 166 160 158 161 158 159 161 159 153 153 152 140 140 146 177 176 106 84 123 134 111 86 95 63 32 62 40
161 126 117 126 150 153 216 263 224 197 187 175 179 175 169 162 162 166 166 161 157 152 151 151 151 149 152 155 150 144 136 133 129 122 137 158 146 132 128 111 96 88 80 72 74 68 62 61 46
171 171 143 145 200 157 166 260 261 186 175 163 167 163 153 154 158 155 151 145 143 146 148 149 150 151 153 148 141 139 132 126 117 114 101 95 97 93 101 95 86 83 75 68 72 72 66 66 54